CAPE
nan nan nan nan nan nan nan nan nan nan nan nan nan nan nan nan nan nan nan nan nan nan nan nan nan nan nan nan nan nan nan nan nan nan nan nan nan nan nan nan nan nan nan nan nan nan nan nan nan nan nan nan nan nan 0 2 2 3 4 4 4 6 7 10 10 12 12 14 15 15 14 14 15 15 17 20 22 22 27 30 30 32 31 33 33 41
nan nan nan nan nan nan nan nan nan nan nan nan nan nan nan nan nan nan nan nan nan nan nan nan nan nan nan nan nan nan nan nan nan nan nan nan nan nan nan nan nan nan nan nan nan nan nan nan nan nan nan nan nan nan 0 1 1 2 3 3 3 5 6 8 8 11 12 13 13 13 11 12 15 15 17 19 23 23 25 29 29 34 34 39 39 44
nan nan nan nan nan nan nan nan nan nan nan nan nan nan nan nan nan nan nan nan nan nan nan nan nan nan nan nan nan nan nan nan nan nan nan nan nan nan nan nan nan nan nan nan nan nan nan nan nan nan nan nan nan nan nan 0 0 1 2 3 3 3 4 7 7 8 9 10 10 10 9 11 15 15 17 20 22 22 25 27 27 32 36 41 41 47
nan nan nan nan nan nan nan nan nan nan nan nan nan nan nan nan nan nan nan nan nan nan nan nan nan nan nan nan nan nan nan nan nan nan nan nan nan nan nan nan nan nan nan nan nan nan nan nan nan nan nan nan nan nan nan 0 0 0 1 1 1 2 2 4 4 6 6 7 7 7 8 10 15 15 17 18 22 22 23 26 26 30 36 44 44 50
nan nan nan nan nan nan nan nan nan nan nan nan nan nan nan nan nan nan nan nan nan nan nan nan nan nan nan nan nan nan nan nan nan nan nan nan nan nan nan nan nan nan nan nan nan nan nan nan nan nan nan nan nan nan nan nan nan 0 1 1 1 1 2 3 3 4 4 5 6 6 9 12 14 14 17 19 20 20 24 25 25 28 34 42 42 49
nan nan nan nan nan nan nan nan nan nan nan nan nan nan nan nan nan nan nan nan nan nan nan nan nan nan nan nan nan nan nan nan nan nan nan nan nan nan nan nan nan nan nan nan nan nan nan nan nan nan nan nan nan nan nan nan nan 0 0 1 1 1 2 3 3 4 4 5 6 6 8 10 12 12 14 17 20 20 22 24 24 26 30 38 38 46
nan nan nan nan nan nan nan nan nan nan nan nan nan nan nan nan nan nan nan nan nan nan nan nan nan nan nan nan nan nan nan nan nan nan nan nan nan nan nan nan nan nan nan nan nan nan nan nan nan nan nan nan nan nan nan nan nan 0 0 1 1 1 2 3 3 4 4 4 5 5 7 8 9 9 12 14 16 16 20 23 23 25 26 33 33 41
nan nan nan nan nan nan nan nan nan nan nan nan nan nan nan nan nan nan nan nan nan nan nan nan nan nan nan nan nan nan nan nan nan nan nan nan nan nan nan nan nan nan nan nan nan nan nan nan nan nan nan nan nan nan nan nan nan nan 0 0 0 1 2 4 4 4 4 4 4 4 5 5 5 5 7 8 9 9 13 16 16 21 23 26 26 29
nan nan nan nan nan nan nan nan nan nan nan nan nan nan nan nan nan nan nan nan nan nan nan nan nan nan nan nan nan nan nan nan nan nan nan nan nan nan nan nan nan nan nan nan nan nan nan nan nan nan nan nan nan nan nan nan nan nan 0 0 0 0 2 3 3 4 5 5 5 5 4 5 5 5 6 7 7 7 9 12 12 16 20 23 23 27
nan nan nan nan nan nan nan nan nan nan nan nan nan nan nan nan nan nan nan nan nan nan nan nan nan nan nan nan nan nan nan nan nan nan nan nan nan nan nan nan nan nan nan nan nan nan nan nan nan nan nan nan nan nan nan nan nan nan 0 0 0 0 1 2 2 3 4 4 5 5 5 5 5 5 6 6 7 7 7 9 9 11 15 19 19 25
nan nan nan nan nan nan nan nan nan nan nan nan nan nan nan nan nan nan nan nan nan nan nan nan nan nan nan nan nan nan nan nan nan nan nan nan nan nan nan nan nan nan nan nan nan nan nan nan nan nan nan nan nan nan nan nan nan nan nan 0 0 0 1 2 2 2 3 4 5 5 5 6 6 6 6 7 7 7 7 7 7 8 10 14 14 19
nan nan nan nan nan nan nan nan nan nan nan nan nan nan nan nan nan nan nan nan nan nan nan nan nan nan nan nan nan nan nan nan nan nan nan nan nan nan nan nan nan nan nan nan nan nan nan nan nan nan nan nan nan nan nan nan nan nan nan nan nan 0 1 1 1 2 2 3 4 4 5 5 5 5 6 7 7 7 7 7 7 7 8 11 11 16
nan nan nan nan nan nan nan nan nan nan nan nan nan nan nan nan nan nan nan nan nan nan nan nan nan nan nan nan nan nan nan nan nan nan nan nan nan nan nan nan nan nan nan nan nan nan nan nan nan nan nan nan nan nan nan nan nan nan nan nan nan 0 0 1 1 2 2 3 4 4 4 4 4 4 5 6 7 7 8 8 8 7 7 9 9 12
nan nan nan nan nan nan nan nan nan nan nan nan nan nan nan nan nan nan nan nan nan nan nan nan nan nan nan nan nan nan nan nan nan nan nan nan nan nan nan nan nan nan nan nan nan nan nan nan nan nan nan nan nan nan nan nan nan nan nan nan nan nan 0 0 0 1 1 2 3 3 3 4 4 4 5 6 7 7 7 9 9 9 9 9 9 10
nan nan nan nan nan nan nan nan nan nan nan nan nan nan nan nan nan nan nan nan nan nan nan nan nan nan nan nan nan nan nan nan nan nan nan nan nan nan nan nan nan nan nan nan nan nan nan nan nan nan nan nan nan nan nan nan nan nan nan nan nan nan 0 0 0 1 1 2 2 2 2 3 4 4 4 5 6 6 7 9 9 10 10 9 9 9
nan nan nan nan nan nan nan nan nan nan nan nan nan nan nan nan nan nan nan nan nan nan nan nan nan nan nan nan nan nan nan nan nan nan nan nan nan nan nan nan nan nan nan nan nan nan nan nan nan nan nan nan nan nan nan nan nan nan nan nan nan nan 0 0 0 0 1 1 1 1 2 2 3 3 4 6 7 7 7 8 8 10 10 10 10 11
nan nan nan nan nan nan nan nan nan nan nan nan nan nan nan nan nan nan nan nan nan nan nan nan nan nan nan nan nan nan nan nan nan nan nan nan nan nan nan nan nan nan nan nan nan nan nan nan nan nan nan nan nan nan nan nan nan nan nan nan nan nan 0 0 0 0 0 1 1 1 1 2 3 3 4 5 6 6 7 7 7 8 9 10 10 10
nan nan nan nan nan nan nan nan nan nan nan nan nan nan nan nan nan nan nan nan nan nan nan nan nan nan nan nan nan nan nan nan nan nan nan nan nan nan nan nan nan nan nan nan nan nan nan nan nan nan nan nan nan nan nan nan nan nan nan nan nan nan 0 0 0 0 0 1 1 1 1 2 2 2 3 4 5 5 6 7 7 8 8 9 9 9
nan nan nan nan nan nan nan nan nan nan nan nan nan nan nan nan nan nan nan nan nan nan nan nan nan nan nan nan nan nan nan nan nan nan nan nan nan nan nan nan nan nan nan nan nan nan nan nan nan nan nan nan nan nan nan nan nan nan nan nan nan nan nan 0 0 0 0 0 1 1 1 1 3 3 3 4 5 5 5 6 6 7 8 8 8 9
nan nan nan nan nan nan nan nan nan nan nan nan nan nan nan nan nan nan nan nan nan nan nan nan nan nan nan nan nan nan nan nan nan nan nan nan nan nan nan nan nan nan nan nan nan nan nan nan nan nan nan nan nan nan nan nan nan nan nan nan nan nan nan nan nan 0 0 0 0 0 1 2 2 2 3 4 5 5 5 6 6 7 7 8 8 9
nan nan nan nan nan nan nan nan nan nan nan nan nan nan nan nan nan nan nan nan nan nan nan nan nan nan nan nan nan nan nan nan nan nan nan nan nan nan nan nan nan nan nan nan nan nan nan nan nan nan nan nan nan nan nan nan nan nan nan nan nan nan nan nan nan nan 0 0 1 1 1 2 3 3 3 4 5 5 5 5 5 6 7 7 7 8
nan nan nan nan nan nan nan nan nan nan nan nan nan nan nan nan nan nan nan nan nan nan nan nan nan nan nan nan nan nan nan nan nan nan nan nan nan nan nan nan nan nan nan nan nan nan nan nan nan nan nan nan nan nan nan nan nan nan nan nan nan nan nan nan nan nan nan 0 0 0 1 2 2 2 4 4 4 4 5 5 5 6 6 6 6 7
nan nan nan nan nan nan nan nan nan nan nan nan nan nan nan nan nan nan nan nan nan nan nan nan nan nan nan nan nan nan nan nan nan nan nan nan nan nan nan nan nan nan nan nan nan nan nan nan nan nan nan nan nan nan nan nan nan nan nan nan nan nan nan nan nan nan nan 0 0 0 1 1 2 2 3 3 4 4 4 4 4 4 5 5 5 6
nan nan nan nan nan nan nan nan nan nan nan nan nan nan nan nan nan nan nan nan nan nan nan nan nan nan nan nan nan nan nan nan nan nan nan nan nan nan nan nan nan nan nan nan nan nan nan nan nan nan nan nan nan nan nan nan nan nan nan nan nan nan nan nan nan nan nan nan 0 0 1 1 2 2 2 2 3 3 3 3 3 3 3 4 4 4
nan nan nan nan nan nan nan nan nan nan nan nan nan nan nan nan nan nan nan nan nan nan nan nan nan nan nan nan nan nan nan nan nan nan nan nan nan nan nan nan nan nan nan nan nan nan nan nan nan nan nan nan nan nan nan nan nan nan nan nan nan nan nan nan nan nan nan nan 0 0 0 1 1 1 1 2 2 2 2 2 2 2 3 2 2 2
nan nan nan nan nan nan nan nan nan nan nan nan nan nan nan nan nan nan nan nan nan nan nan nan nan nan nan nan nan nan nan nan nan nan nan nan nan nan nan nan nan nan nan nan nan nan nan nan nan nan nan nan nan nan nan nan nan nan nan nan nan nan nan nan nan nan nan nan nan nan 0 0 1 1 1 1 1 1 1 1 1 1 2 2 2 1
nan nan nan nan nan nan nan nan nan nan nan nan nan nan nan nan nan nan nan nan nan nan nan nan nan nan nan nan nan nan nan nan nan nan nan nan nan nan nan nan nan nan nan nan nan nan nan nan nan nan nan nan nan nan nan nan nan nan nan nan nan nan nan nan nan nan nan nan nan nan 0 0 0 0 1 1 1 1 1 1 1 1 1 1 1 0
nan nan nan nan nan nan nan nan nan nan nan nan nan nan nan nan nan nan nan nan nan nan nan nan nan nan nan nan nan nan nan nan nan nan nan nan nan nan nan nan nan nan nan nan nan nan nan nan nan nan nan nan nan nan nan nan nan nan nan nan nan nan nan nan nan nan nan nan nan nan nan 0 0 0 0 0 0 0 1 0 0 1 1 nan nan nan
nan nan nan nan nan nan 0 1 1 1 1 2 2 2 nan nan nan nan nan nan nan nan nan nan nan nan nan nan nan nan nan nan nan nan nan nan nan nan nan nan nan nan nan nan nan nan nan nan nan nan nan nan nan nan nan nan nan nan nan nan nan nan nan nan nan nan nan nan nan nan nan nan nan nan nan 0 0 0 0 0 0 1 0 nan nan nan
4 5 5 4 4 5 6 5 6 6 7 6 4 4 0 nan nan nan nan nan nan nan nan nan nan nan nan nan nan nan nan nan nan nan nan nan nan nan nan nan nan nan nan nan nan nan nan nan nan nan nan nan nan nan nan nan nan nan nan nan nan nan nan nan nan nan nan nan nan nan nan nan nan nan nan nan nan nan 0 0 0 0 nan nan nan nan
5 3 1 0 0 3 4 6 8 8 14 13 8 8 1 nan nan nan nan nan nan nan nan nan nan nan nan nan nan nan nan nan nan nan nan nan nan nan nan nan nan nan nan nan nan nan nan nan nan nan nan nan nan nan nan nan nan nan nan nan nan nan nan nan nan nan nan nan nan nan nan nan nan nan nan nan nan nan nan 0 0 0 nan nan nan nan
nan nan nan nan nan nan nan nan nan nan 1 1 nan nan nan nan nan nan nan nan nan nan nan nan nan nan nan nan nan nan nan nan nan nan nan nan nan nan nan nan nan nan nan nan nan nan nan nan nan nan nan nan nan nan nan nan nan nan nan nan nan nan nan nan nan nan nan nan nan nan nan nan nan nan nan nan nan nan nan nan nan 0 nan nan nan nan
nan nan nan nan nan nan nan nan nan nan nan nan nan nan nan nan nan nan nan nan nan nan nan nan nan nan nan nan nan nan nan nan nan nan nan nan nan nan nan nan nan nan nan nan nan nan nan nan nan nan nan nan nan nan nan nan nan nan nan nan nan nan nan nan nan nan nan nan nan nan nan nan nan nan nan nan nan nan nan nan nan 0 0 nan nan nan
nan nan nan nan nan nan nan nan nan nan nan nan nan nan nan nan nan nan nan nan nan nan nan nan nan nan nan nan nan nan nan nan nan nan nan nan nan nan nan nan nan nan nan nan nan nan nan nan nan nan nan nan nan nan nan nan nan nan nan nan nan nan nan nan nan nan nan nan nan nan nan nan nan nan nan nan nan nan nan nan nan 0 0 0 0 nan
nan nan nan nan nan nan nan nan nan nan nan nan nan nan nan nan nan nan nan nan nan nan nan nan nan nan nan nan nan nan nan nan nan nan nan nan nan nan nan nan nan nan nan nan nan nan nan nan nan nan nan nan nan nan nan nan nan nan nan nan nan nan nan nan nan nan nan nan nan nan nan nan nan nan nan nan nan nan nan nan nan 0 0 1 1 nan
nan nan nan nan nan nan nan nan nan nan nan nan nan nan nan nan nan nan nan nan nan nan nan nan nan nan nan nan nan nan nan nan nan nan nan nan nan nan nan nan nan nan nan nan nan nan nan nan nan nan nan nan nan nan nan nan nan nan nan nan nan nan nan nan nan nan nan nan nan nan nan nan nan nan nan nan nan nan nan nan nan nan nan 0 0 0
nan nan nan nan nan nan nan nan nan nan nan nan nan nan nan nan nan nan nan nan nan nan nan nan nan nan nan nan nan nan nan nan nan nan nan nan nan nan nan nan nan nan nan nan nan nan nan nan nan nan nan nan nan nan nan nan nan nan nan nan nan nan nan nan nan nan nan nan nan nan nan nan nan nan nan nan nan nan nan nan nan nan nan nan nan nan
nan nan nan nan nan nan nan nan nan nan nan nan nan nan nan nan nan nan nan nan nan nan nan nan nan nan nan nan nan nan nan nan nan nan nan 0 nan nan nan nan nan nan nan nan nan nan nan nan nan nan nan nan nan nan nan nan nan nan nan nan nan nan nan nan nan nan nan nan nan nan nan nan nan nan nan nan nan nan nan nan nan nan nan nan nan nan
nan nan nan nan nan nan nan nan nan nan nan nan nan nan nan nan nan nan nan nan nan nan nan nan nan nan nan nan nan nan nan nan 1 1 2 2 0 0 nan nan nan nan nan nan nan nan nan nan nan nan nan nan nan nan nan nan nan nan nan nan nan nan nan nan nan nan nan nan nan nan nan nan nan nan nan nan nan nan nan nan nan nan nan nan nan nan
nan nan nan nan nan nan nan nan nan nan nan nan nan nan nan nan nan nan nan nan nan nan nan nan nan nan nan nan nan nan nan 3 2 2 3 3 1 1 nan nan nan nan nan nan nan nan nan nan nan nan nan nan nan nan nan nan nan nan nan nan nan nan nan nan nan nan nan nan nan nan nan nan nan nan nan nan nan nan nan nan nan nan nan nan nan nan
nan nan nan nan nan nan nan nan nan nan nan nan nan nan nan nan nan nan nan nan nan nan nan nan nan nan nan nan nan nan nan 0 0 0 2 nan 1 1 nan nan nan nan nan nan nan nan nan nan nan nan nan nan nan nan nan nan nan nan nan nan nan nan nan nan nan nan nan nan nan nan nan nan nan nan nan nan nan nan nan nan nan nan nan nan nan nan
nan nan nan nan nan nan nan nan nan nan nan nan nan nan nan nan nan nan nan nan nan nan nan nan nan nan nan nan nan nan nan nan nan nan 0 nan nan nan 0 nan nan nan nan nan nan nan nan nan nan nan nan nan nan nan nan nan nan nan nan nan nan nan nan nan nan nan nan nan nan nan nan nan nan nan nan nan nan nan nan nan nan nan nan nan nan nan
nan nan nan nan nan nan nan nan nan nan nan nan nan nan nan nan nan nan nan nan nan nan nan nan nan nan nan nan nan nan nan nan nan nan nan nan nan nan nan nan nan nan nan nan nan nan nan nan nan nan nan nan nan nan nan nan nan nan nan nan nan nan nan nan nan nan nan nan nan nan nan nan nan nan nan nan nan nan nan nan nan nan nan nan nan nan
0 0 nan nan nan nan nan nan nan nan nan nan nan nan nan nan nan nan nan nan nan nan nan nan nan nan nan nan nan nan nan nan nan nan nan nan nan nan nan nan nan nan nan nan nan nan nan nan nan nan nan nan nan nan nan nan nan nan nan nan nan nan nan nan nan nan nan nan nan nan nan nan nan nan nan nan nan nan nan nan nan nan nan nan nan nan
0 0 nan nan nan nan nan nan nan nan nan nan nan nan nan nan nan nan nan nan nan nan nan nan nan nan nan nan nan nan nan nan nan nan nan nan nan nan nan nan nan nan nan nan nan nan nan nan nan nan nan nan nan nan nan nan nan nan nan nan nan nan nan nan nan nan nan nan nan nan nan nan nan nan nan nan nan nan nan nan nan nan nan nan nan nan
0 0 nan nan nan nan nan nan nan nan nan nan nan nan nan nan nan nan nan nan nan nan nan nan nan nan nan nan nan nan nan nan nan nan nan nan nan nan 0 nan nan nan nan nan nan nan nan nan nan nan nan nan nan nan nan nan nan nan nan nan nan nan nan nan nan nan nan nan nan nan nan nan nan nan nan nan nan nan nan nan nan nan nan nan nan nan
0 nan nan nan nan nan nan nan nan nan nan nan nan nan nan nan nan nan nan nan nan nan nan nan nan nan nan nan nan nan nan nan nan nan nan nan nan nan nan nan nan nan nan nan nan nan nan nan nan nan nan nan nan nan nan nan nan nan nan nan nan nan nan nan nan nan nan nan nan nan nan 1 nan nan nan nan nan nan nan nan nan nan nan nan nan nan
0 nan nan nan nan nan nan nan nan nan nan nan nan nan nan nan nan nan nan nan nan nan nan nan nan nan nan nan nan nan nan nan nan nan nan nan nan nan nan nan nan nan nan nan nan nan nan nan nan 0 nan nan nan nan nan nan nan nan nan nan nan nan nan nan nan nan nan nan 0 0 2 0 nan nan nan nan nan nan nan nan nan nan nan nan nan nan
0 0 nan nan nan nan nan nan nan nan nan nan nan nan nan nan nan nan nan nan nan nan nan nan nan nan nan nan nan nan nan nan nan nan nan nan nan nan nan nan nan nan nan nan nan nan nan 0 0 nan nan nan nan nan nan nan nan nan nan nan nan nan nan nan nan nan nan nan 3 3 3 nan nan nan nan nan nan nan nan nan nan nan nan nan nan nan
0 0 0 nan nan nan nan nan nan nan nan nan nan nan nan nan nan nan nan nan nan nan nan nan nan nan nan nan nan nan nan nan nan nan nan nan nan nan nan nan nan nan nan nan nan nan nan nan nan nan nan nan nan nan nan nan nan nan nan nan nan nan nan nan nan nan nan nan 0 0 3 0 0 0 nan nan nan nan nan nan nan nan nan nan nan nan
1 0 0 nan nan nan nan nan nan nan nan nan nan nan nan nan nan nan nan nan nan nan nan nan nan nan nan nan nan nan nan nan nan nan nan nan nan nan nan nan nan nan nan nan nan nan nan nan nan nan nan nan nan nan nan nan nan nan nan nan nan nan nan nan nan nan nan nan nan nan 1 1 nan nan nan nan nan nan nan nan nan nan nan nan nan nan
CIN
nan nan nan nan nan nan nan nan nan nan nan nan nan nan nan nan nan nan nan nan nan nan nan nan nan nan nan nan nan nan nan nan nan nan nan nan nan nan nan nan nan nan nan nan nan nan nan nan nan nan nan nan nan nan -0 -0 -0 -0 -0 -0 -0 -0 -0 -0 -0 -0 -0 -0 -0 -0 -0 -0 -0 -0 -0 -0 -0 -0 -0 -0 -0 -0 -0 -0 -0 -0
nan nan nan nan nan nan nan nan nan nan nan nan nan nan nan nan nan nan nan nan nan nan nan nan nan nan nan nan nan nan nan nan nan nan nan nan nan nan nan nan nan nan nan nan nan nan nan nan nan nan nan nan nan nan -0 -0 -0 -0 -0 -0 -0 -0 -0 -0 -0 -0 -0 -0 -0 -0 -0 -0 -0 -0 -0 -0 -0 -0 -0 -0 -0 -0 -0 -0 -0 -0
nan nan nan nan nan nan nan nan nan nan nan nan nan nan nan nan nan nan nan nan nan nan nan nan nan nan nan nan nan nan nan nan nan nan nan nan nan nan nan nan nan nan nan nan nan nan nan nan nan nan nan nan nan nan nan -0 -0 -0 -0 -0 -0 -0 -0 -0 -0 -0 -0 -0 -0 -0 -0 -0 -0 -0 -0 -0 -0 -0 -0 -0 -0 -0 -0 -0 -0 -0
nan nan nan nan nan nan nan nan nan nan nan nan nan nan nan nan nan nan nan nan nan nan nan nan nan nan nan nan nan nan nan nan nan nan nan nan nan nan nan nan nan nan nan nan nan nan nan nan nan nan nan nan nan nan nan -0 -0 -0 -0 -0 -0 -0 -0 -0 -0 -0 -0 -0 -0 -0 -0 -0 -0 -0 -0 -0 -0 -0 -0 -0 -0 -0 -0 -0 -0 -0
nan nan nan nan nan nan nan nan nan nan nan nan nan nan nan nan nan nan nan nan nan nan nan nan nan nan nan nan nan nan nan nan nan nan nan nan nan nan nan nan nan nan nan nan nan nan nan nan nan nan nan nan nan nan nan nan nan -0 -0 -0 -0 -0 -0 -0 -0 -0 -0 -0 -0 -0 -0 -0 -0 -0 -0 -0 -0 -0 -0 -0 -0 -0 -0 -0 -0 -0
nan nan nan nan nan nan nan nan nan nan nan nan nan nan nan nan nan nan nan nan nan nan nan nan nan nan nan nan nan nan nan nan nan nan nan nan nan nan nan nan nan nan nan nan nan nan nan nan nan nan nan nan nan nan nan nan nan -0 -0 -0 -0 -0 -0 -0 -0 -0 -0 -0 -0 -0 -0 -0 -0 -0 -0 -0 -0 -0 -0 -0 -0 -0 -0 -0 -0 -0
nan nan nan nan nan nan nan nan nan nan nan nan nan nan nan nan nan nan nan nan nan nan nan nan nan nan nan nan nan nan nan nan nan nan nan nan nan nan nan nan nan nan nan nan nan nan nan nan nan nan nan nan nan nan nan nan nan -0 -0 -0 -0 -0 -0 -0 -0 -0 -0 -0 -0 -0 -0 -0 -0 -0 -0 -0 -0 -0 -0 -0 -0 -0 -0 -0 -0 -0
nan nan nan nan nan nan nan nan nan nan nan nan nan nan nan nan nan nan nan nan nan nan nan nan nan nan nan nan nan nan nan nan nan nan nan nan nan nan nan nan nan nan nan nan nan nan nan nan nan nan nan nan nan nan nan nan nan nan -0 -0 -0 -0 -0 -0 -0 -0 -0 -0 -0 -0 -0 -0 -0 -0 -0 -0 -0 -0 -0 -0 -0 -0 -0 -0 -0 -0
nan nan nan nan nan nan nan nan nan nan nan nan nan nan nan nan nan nan nan nan nan nan nan nan nan nan nan nan nan nan nan nan nan nan nan nan nan nan nan nan nan nan nan nan nan nan nan nan nan nan nan nan nan nan nan nan nan nan -0 -0 -0 -0 -0 -0 -0 -0 -0 -0 -0 -0 -0 -0 -0 -0 -0 -0 -0 -0 -0 -0 -0 -0 -0 -0 -0 -0
nan nan nan nan nan nan nan nan nan nan nan nan nan nan nan nan nan nan nan nan nan nan nan nan nan nan nan nan nan nan nan nan nan nan nan nan nan nan nan nan nan nan nan nan nan nan nan nan nan nan nan nan nan nan nan nan nan nan -0 -0 -0 -0 -0 -0 -0 -0 -0 -0 -0 -0 -0 -0 -0 -0 -0 -0 -0 -0 -0 -0 -0 -0 -0 -0 -0 -0
nan nan nan nan nan nan nan nan nan nan nan nan nan nan nan nan nan nan nan nan nan nan nan nan nan nan nan nan nan nan nan nan nan nan nan nan nan nan nan nan nan nan nan nan nan nan nan nan nan nan nan nan nan nan nan nan nan nan nan -0 -0 -0 -0 -0 -0 -0 -0 -0 -0 -0 -0 -0 -0 -0 -0 -0 -0 -0 -0 -0 -0 -0 -0 -0 -0 -0
nan nan nan nan nan nan nan nan nan nan nan nan nan nan nan nan nan nan nan nan nan nan nan nan nan nan nan nan nan nan nan nan nan nan nan nan nan nan nan nan nan nan nan nan nan nan nan nan nan nan nan nan nan nan nan nan nan nan nan nan nan -0 -0 -0 -0 -0 -0 -0 -0 -0 -0 -0 -0 -0 -0 -0 -0 -0 -0 -0 -0 -0 -0 -0 -0 -0
nan nan nan nan nan nan nan nan nan nan nan nan nan nan nan nan nan nan nan nan nan nan nan nan nan nan nan nan nan nan nan nan nan nan nan nan nan nan nan nan nan nan nan nan nan nan nan nan nan nan nan nan nan nan nan nan nan nan nan nan nan -0 -0 -0 -0 -0 -0 -0 -0 -0 -0 -0 -0 -0 -0 -0 -0 -0 -0 -0 -0 -0 -0 -0 -0 -0
nan nan nan nan nan nan nan nan nan nan nan nan nan nan nan nan nan nan nan nan nan nan nan nan nan nan nan nan nan nan nan nan nan nan nan nan nan nan nan nan nan nan nan nan nan nan nan nan nan nan nan nan nan nan nan nan nan nan nan nan nan nan -0 -0 -0 -0 -0 -0 -0 -0 -0 -0 -0 -0 -0 -0 -0 -0 -0 -0 -0 -0 -0 -0 -0 -0
nan nan nan nan nan nan nan nan nan nan nan nan nan nan nan nan nan nan nan nan nan nan nan nan nan nan nan nan nan nan nan nan nan nan nan nan nan nan nan nan nan nan nan nan nan nan nan nan nan nan nan nan nan nan nan nan nan nan nan nan nan nan -0 -0 -0 -0 -0 -0 -0 -0 -0 -0 -0 -0 -0 -0 -0 -0 -0 -0 -0 -0 -0 -0 -0 -0
nan nan nan nan nan nan nan nan nan nan nan nan nan nan nan nan nan nan nan nan nan nan nan nan nan nan nan nan nan nan nan nan nan nan nan nan nan nan nan nan nan nan nan nan nan nan nan nan nan nan nan nan nan nan nan nan nan nan nan nan nan nan -0 -0 -0 -0 -0 -0 -0 -0 -0 -0 -0 -0 -0 -0 -0 -0 -0 -0 -0 -0 -0 -0 -0 -0
nan nan nan nan nan nan nan nan nan nan nan nan nan nan nan nan nan nan nan nan nan nan nan nan nan nan nan nan nan nan nan nan nan nan nan nan nan nan nan nan nan nan nan nan nan nan nan nan nan nan nan nan nan nan nan nan nan nan nan nan nan nan -0 -0 -0 -0 -0 -0 -0 -0 -0 -0 -0 -0 -0 -0 -0 -0 -0 -0 -0 -0 -0 -0 -0 -0
nan nan nan nan nan nan nan nan nan nan nan nan nan nan nan nan nan nan nan nan nan nan nan nan nan nan nan nan nan nan nan nan nan nan nan nan nan nan nan nan nan nan nan nan nan nan nan nan nan nan nan nan nan nan nan nan nan nan nan nan nan nan -0 -0 -0 -0 -0 -0 -0 -0 -0 -0 -0 -0 -0 -0 -0 -0 -0 -0 -0 -0 -0 -0 -0 -0
nan nan nan nan nan nan nan nan nan nan nan nan nan nan nan nan nan nan nan nan nan nan nan nan nan nan nan nan nan nan nan nan nan nan nan nan nan nan nan nan nan nan nan nan nan nan nan nan nan nan nan nan nan nan nan nan nan nan nan nan nan nan nan -0 -0 -0 -0 -0 -0 -0 -0 -0 -0 -0 -0 -0 -0 -0 -0 -0 -0 -0 -0 -0 -0 -0
nan nan nan nan nan nan nan nan nan nan nan nan nan nan nan nan nan nan nan nan nan nan nan nan nan nan nan nan nan nan nan nan nan nan nan nan nan nan nan nan nan nan nan nan nan nan nan nan nan nan nan nan nan nan nan nan nan nan nan nan nan nan nan nan nan -0 -0 -0 -0 -0 -0 -0 -0 -0 -0 -0 -0 -0 -0 -0 -0 -0 -0 -0 -0 -0
nan nan nan nan nan nan nan nan nan nan nan nan nan nan nan nan nan nan nan nan nan nan nan nan nan nan nan nan nan nan nan nan nan nan nan nan nan nan nan nan nan nan nan nan nan nan nan nan nan nan nan nan nan nan nan nan nan nan nan nan nan nan nan nan nan nan -0 -0 -0 -0 -0 -0 -0 -0 -0 -0 -0 -0 -0 -0 -0 -0 -0 -0 -0 -0
nan nan nan nan nan nan nan nan nan nan nan nan nan nan nan nan nan nan nan nan nan nan nan nan nan nan nan nan nan nan nan nan nan nan nan nan nan nan nan nan nan nan nan nan nan nan nan nan nan nan nan nan nan nan nan nan nan nan nan nan nan nan nan nan nan nan nan -0 -0 -0 -0 -0 -0 -0 -0 -0 -0 -0 -0 -0 -0 -0 -0 -0 -0 -0
nan nan nan nan nan nan nan nan nan nan nan nan nan nan nan nan nan nan nan nan nan nan nan nan nan nan nan nan nan nan nan nan nan nan nan nan nan nan nan nan nan nan nan nan nan nan nan nan nan nan nan nan nan nan nan nan nan nan nan nan nan nan nan nan nan nan nan -0 -0 -0 -0 -0 -0 -0 -0 -0 -0 -0 -0 -0 -0 -0 -0 -0 -0 -0
nan nan nan nan nan nan nan nan nan nan nan nan nan nan nan nan nan nan nan nan nan nan nan nan nan nan nan nan nan nan nan nan nan nan nan nan nan nan nan nan nan nan nan nan nan nan nan nan nan nan nan nan nan nan nan nan nan nan nan nan nan nan nan nan nan nan nan nan -0 -0 -0 -0 -0 -0 -0 -0 -0 -0 -0 -0 -0 -0 -0 -0 -0 -0
nan nan nan nan nan nan nan nan nan nan nan nan nan nan nan nan nan nan nan nan nan nan nan nan nan nan nan nan nan nan nan nan nan nan nan nan nan nan nan nan nan nan nan nan nan nan nan nan nan nan nan nan nan nan nan nan nan nan nan nan nan nan nan nan nan nan nan nan -0 -0 -0 -0 -0 -0 -0 -0 -0 -0 -0 -0 -0 -0 -0 -0 -0 -0
nan nan nan nan nan nan nan nan nan nan nan nan nan nan nan nan nan nan nan nan nan nan nan nan nan nan nan nan nan nan nan nan nan nan nan nan nan nan nan nan nan nan nan nan nan nan nan nan nan nan nan nan nan nan nan nan nan nan nan nan nan nan nan nan nan nan nan nan nan nan -0 -0 -0 -0 -0 -0 -0 -0 -0 -0 -0 -0 -0 -0 -0 -0
nan nan nan nan nan nan nan nan nan nan nan nan nan nan nan nan nan nan nan nan nan nan nan nan nan nan nan nan nan nan nan nan nan nan nan nan nan nan nan nan nan nan nan nan nan nan nan nan nan nan nan nan nan nan nan nan nan nan nan nan nan nan nan nan nan nan nan nan nan nan -0 -0 -0 -0 -0 -0 -0 -0 -0 -0 -0 -0 -0 -0 -0 -0
nan nan nan nan nan nan nan nan nan nan nan nan nan nan nan nan nan nan nan nan nan nan nan nan nan nan nan nan nan nan nan nan nan nan nan nan nan nan nan nan nan nan nan nan nan nan nan nan nan nan nan nan nan nan nan nan nan nan nan nan nan nan nan nan nan nan nan nan nan nan nan -0 -0 -0 -0 -0 -0 -0 -0 -0 -0 -0 -0 nan nan nan
nan nan nan nan nan nan -0 -0 -0 -0 -0 -0 -0 -0 nan nan nan nan nan nan nan nan nan nan nan nan nan nan nan nan nan nan nan nan nan nan nan nan nan nan nan nan nan nan nan nan nan nan nan nan nan nan nan nan nan nan nan nan nan nan nan nan nan nan nan nan nan nan nan nan nan nan nan nan nan -0 -0 -0 -0 -0 -0 -0 -0 nan nan nan
-0 -0 -0 -0 -0 -0 -0 -0 -0 -0 -0 -0 -0 -0 -0 nan nan nan nan nan nan nan nan nan nan nan nan nan nan nan nan nan nan nan nan nan nan nan nan nan nan nan nan nan nan nan nan nan nan nan nan nan nan nan nan nan nan nan nan nan nan nan nan nan nan nan nan nan nan nan nan nan nan nan nan nan nan nan -0 -0 -0 -0 nan nan nan nan
-0 -0 -0 -0 -0 -0 -0 -0 -0 -0 -0 -0 -0 -0 -0 nan nan nan nan nan nan nan nan nan nan nan nan nan nan nan nan nan nan nan nan nan nan nan nan nan nan nan nan nan nan nan nan nan nan nan nan nan nan nan nan nan nan nan nan nan nan nan nan nan nan nan nan nan nan nan nan nan nan nan nan nan nan nan nan -0 -0 -0 nan nan nan nan
nan nan nan nan nan nan nan nan nan nan -0 -0 nan nan nan nan nan nan nan nan nan nan nan nan nan nan nan nan nan nan nan nan nan nan nan nan nan nan nan nan nan nan nan nan nan nan nan nan nan nan nan nan nan nan nan nan nan nan nan nan nan nan nan nan nan nan nan nan nan nan nan nan nan nan nan nan nan nan nan nan nan -0 nan nan nan nan
nan nan nan nan nan nan nan nan nan nan nan nan nan nan nan nan nan nan nan nan nan nan nan nan nan nan nan nan nan nan nan nan nan nan nan nan nan nan nan nan nan nan nan nan nan nan nan nan nan nan nan nan nan nan nan nan nan nan nan nan nan nan nan nan nan nan nan nan nan nan nan nan nan nan nan nan nan nan nan nan nan -0 -0 nan nan nan
nan nan nan nan nan nan nan nan nan nan nan nan nan nan nan nan nan nan nan nan nan nan nan nan nan nan nan nan nan nan nan nan nan nan nan nan nan nan nan nan nan nan nan nan nan nan nan nan nan nan nan nan nan nan nan nan nan nan nan nan nan nan nan nan nan nan nan nan nan nan nan nan nan nan nan nan nan nan nan nan nan -0 -0 -0 -0 nan
nan nan nan nan nan nan nan nan nan nan nan nan nan nan nan nan nan nan nan nan nan nan nan nan nan nan nan nan nan nan nan nan nan nan nan nan nan nan nan nan nan nan nan nan nan nan nan nan nan nan nan nan nan nan nan nan nan nan nan nan nan nan nan nan nan nan nan nan nan nan nan nan nan nan nan nan nan nan nan nan nan -0 -0 -0 -0 nan
nan nan nan nan nan nan nan nan nan nan nan nan nan nan nan nan nan nan nan nan nan nan nan nan nan nan nan nan nan nan nan nan nan nan nan nan nan nan nan nan nan nan nan nan nan nan nan nan nan nan nan nan nan nan nan nan nan nan nan nan nan nan nan nan nan nan nan nan nan nan nan nan nan nan nan nan nan nan nan nan nan nan nan -0 -0 -0
nan nan nan nan nan nan nan nan nan nan nan nan nan nan nan nan nan nan nan nan nan nan nan nan nan nan nan nan nan nan nan nan nan nan nan nan nan nan nan nan nan nan nan nan nan nan nan nan nan nan nan nan nan nan nan nan nan nan nan nan nan nan nan nan nan nan nan nan nan nan nan nan nan nan nan nan nan nan nan nan nan nan nan nan nan nan
nan nan nan nan nan nan nan nan nan nan nan nan nan nan nan nan nan nan nan nan nan nan nan nan nan nan nan nan nan nan nan nan nan nan nan -0 nan nan nan nan nan nan nan nan nan nan nan nan nan nan nan nan nan nan nan nan nan nan nan nan nan nan nan nan nan nan nan nan nan nan nan nan nan nan nan nan nan nan nan nan nan nan nan nan nan nan
nan nan nan nan nan nan nan nan nan nan nan nan nan nan nan nan nan nan nan nan nan nan nan nan nan nan nan nan nan nan nan nan -0 -0 -0 -0 -0 -0 nan nan nan nan nan nan nan nan nan nan nan nan nan nan nan nan nan nan nan nan nan nan nan nan nan nan nan nan nan nan nan nan nan nan nan nan nan nan nan nan nan nan nan nan nan nan nan nan
nan nan nan nan nan nan nan nan nan nan nan nan nan nan nan nan nan nan nan nan nan nan nan nan nan nan nan nan nan nan nan -0 -0 -0 -0 -0 -0 -0 nan nan nan nan nan nan nan nan nan nan nan nan nan nan nan nan nan nan nan nan nan nan nan nan nan nan nan nan nan nan nan nan nan nan nan nan nan nan nan nan nan nan nan nan nan nan nan nan
nan nan nan nan nan nan nan nan nan nan nan nan nan nan nan nan nan nan nan nan nan nan nan nan nan nan nan nan nan nan nan -0 -0 -0 -0 nan -0 -0 nan nan nan nan nan nan nan nan nan nan nan nan nan nan nan nan nan nan nan nan nan nan nan nan nan nan nan nan nan nan nan nan nan nan nan nan nan nan nan nan nan nan nan nan nan nan nan nan
nan nan nan nan nan nan nan nan nan nan nan nan nan nan nan nan nan nan nan nan nan nan nan nan nan nan nan nan nan nan nan nan nan nan -0 nan nan nan -0 nan nan nan nan nan nan nan nan nan nan nan nan nan nan nan nan nan nan nan nan nan nan nan nan nan nan nan nan nan nan nan nan nan nan nan nan nan nan nan nan nan nan nan nan nan nan nan
nan nan nan nan nan nan nan nan nan nan nan nan nan nan nan nan nan nan nan nan nan nan nan nan nan nan nan nan nan nan nan nan nan nan nan nan nan nan nan nan nan nan nan nan nan nan nan nan nan nan nan nan nan nan nan nan nan nan nan nan nan nan nan nan nan nan nan nan nan nan nan nan nan nan nan nan nan nan nan nan nan nan nan nan nan nan
-0 -0 nan nan nan nan nan nan nan nan nan nan nan nan nan nan nan nan nan nan nan nan nan nan nan nan nan nan nan nan nan nan nan nan nan nan nan nan nan nan nan nan nan nan nan nan nan nan nan nan nan nan nan nan nan nan nan nan nan nan nan nan nan nan nan nan nan nan nan nan nan nan nan nan nan nan nan nan nan nan nan nan nan nan nan nan
-0 -0 nan nan nan nan nan nan nan nan nan nan nan nan nan nan nan nan nan nan nan nan nan nan nan nan nan nan nan nan nan nan nan nan nan nan nan nan nan nan nan nan nan nan nan nan nan nan nan nan nan nan nan nan nan nan nan nan nan nan nan nan nan nan nan nan nan nan nan nan nan nan nan nan nan nan nan nan nan nan nan nan nan nan nan nan
-0 -0 nan nan nan nan nan nan nan nan nan nan nan nan nan nan nan nan nan nan nan nan nan nan nan nan nan nan nan nan nan nan nan nan nan nan nan nan -0 nan nan nan nan nan nan nan nan nan nan nan nan nan nan nan nan nan nan nan nan nan nan nan nan nan nan nan nan nan nan nan nan nan nan nan nan nan nan nan nan nan nan nan nan nan nan nan
-0 nan nan nan nan nan nan nan nan nan nan nan nan nan nan nan nan nan nan nan nan nan nan nan nan nan nan nan nan nan nan nan nan nan nan nan nan nan nan nan nan nan nan nan nan nan nan nan nan nan nan nan nan nan nan nan nan nan nan nan nan nan nan nan nan nan nan nan nan nan nan -0 nan nan nan nan nan nan nan nan nan nan nan nan nan nan
-0 nan nan nan nan nan nan nan nan nan nan nan nan nan nan nan nan nan nan nan nan nan nan nan nan nan nan nan nan nan nan nan nan nan nan nan nan nan nan nan nan nan nan nan nan nan nan nan nan -0 nan nan nan nan nan nan nan nan nan nan nan nan nan nan nan nan nan nan -0 -0 -0 -0 nan nan nan nan nan nan nan nan nan nan nan nan nan nan
-0 -0 nan nan nan nan nan nan nan nan nan nan nan nan nan nan nan nan nan nan nan nan nan nan nan nan nan nan nan nan nan nan nan nan nan nan nan nan nan nan nan nan nan nan nan nan nan -0 -0 nan nan nan nan nan nan nan nan nan nan nan nan nan nan nan nan nan nan nan -0 -0 -0 nan nan nan nan nan nan nan nan nan nan nan nan nan nan nan
-0 -0 -0 nan nan nan nan nan nan nan nan nan nan nan nan nan nan nan nan nan nan nan nan nan nan nan nan nan nan nan nan nan nan nan nan nan nan nan nan nan nan nan nan nan nan nan nan nan nan nan nan nan nan nan nan nan nan nan nan nan nan nan nan nan nan nan nan nan -0 -0 -0 -0 -0 -0 nan nan nan nan nan nan nan nan nan nan nan nan
-0 -0 -0 nan nan nan nan nan nan nan nan nan nan nan nan nan nan nan nan nan nan nan nan nan nan nan nan nan nan nan nan nan nan nan nan nan nan nan nan nan nan nan nan nan nan nan nan nan nan nan nan nan nan nan nan nan nan nan nan nan nan nan nan nan nan nan nan nan nan nan -0 -0 nan nan nan nan nan nan nan nan nan nan nan nan nan nan
Wind_Speed
4 4 5 5 5 4 4 5 5 5 5 5 4 4 4 4 4 4 4 3 4 4 4 5 6 6 7 7 7 7 7 7 6 6 6 6 6 6 5 5 5 5 5 5 5 5 5 5 5 5 6 6 6 6 7 7 8 8 8 8 9 9 9 9 9 10 10 10 10 11 11 11 11 11 11 12 12 12 13 13 13 14 14 14 14 15
5 4 4 5 5 4 4 5 5 5 5 5 5 5 5 5 5 4 3 3 3 3 3 4 5 6 7 7 7 6 6 6 6 6 5 5 5 5 5 5 5 5 5 5 5 5 5 5 5 5 5 5 5 6 6 7 7 8 8 8 8 9 9 9 9 9 10 10 10 10 10 11 11 11 11 12 12 12 13 13 13 14 14 14 15 15
5 5 4 5 5 5 4 5 5 5 5 5 5 5 6 6 5 4 3 3 3 3 3 3 4 5 6 6 6 6 6 5 5 5 5 5 5 5 5 4 4 4 4 4 4 4 4 4 5 5 5 5 5 5 6 6 7 7 8 8 8 8 8 9 9 9 9 10 10 10 10 10 11 11 11 12 12 12 13 13 13 14 14 14 15 15
5 5 5 4 4 4 4 4 4 4 4 5 5 6 6 5 4 4 3 3 3 3 2 2 3 3 4 5 5 5 5 5 5 4 4 4 4 4 4 4 4 4 3 3 4 4 4 4 4 4 4 5 5 5 5 6 6 7 7 7 8 8 8 8 9 9 9 9 10 10 10 10 11 11 11 12 12 12 13 13 13 14 14 14 15 15
5 5 5 4 3 4 4 5 5 4 4 4 5 5 5 4 4 3 4 4 4 3 3 2 2 2 3 3 4 5 4 4 4 4 4 4 4 4 3 3 3 3 3 3 3 3 4 4 4 4 4 4 4 5 5 6 6 7 7 7 7 8 8 8 8 9 9 9 9 10 10 10 11 11 11 12 12 12 13 13 13 14 14 14 15 15
5 4 4 4 3 3 3 4 4 4 4 4 4 4 4 3 3 3 3 4 3 3 3 2 2 2 2 3 3 4 4 4 4 3 3 3 3 3 3 3 3 3 3 2 3 3 3 3 4 4 4 4 4 4 5 5 6 6 7 7 7 8 8 8 8 9 9 9 9 10 10 10 10 11 11 11 12 12 13 13 13 14 14 14 15 15
5 4 4 3 3 3 3 4 4 4 4 4 4 4 4 3 3 3 3 3 3 3 3 2 2 2 2 3 3 3 3 3 3 3 3 3 3 3 2 2 2 2 2 2 2 2 3 3 3 4 4 4 4 4 5 5 6 6 7 7 7 8 8 8 8 9 9 9 9 10 10 10 10 11 11 11 12 12 13 13 13 14 14 14 15 15
5 5 4 3 3 3 3 3 4 4 4 4 4 4 4 3 3 3 3 3 3 3 3 3 2 2 2 2 2 2 2 2 3 3 2 2 2 2 2 2 2 2 2 2 2 2 3 3 3 3 3 4 4 4 4 5 6 6 7 7 7 7 8 8 9 9 9 9 10 10 10 10 10 11 11 11 12 12 12 13 13 14 14 14 14 15
6 6 5 4 4 4 3 3 3 3 3 4 4 4 4 4 4 3 3 3 3 2 2 3 3 3 2 2 2 1 1 1 1 1 1 2 2 2 2 1 1 1 2 2 2 2 2 3 3 3 3 3 3 4 4 5 5 6 6 7 7 7 8 8 9 9 9 10 10 10 10 10 11 11 11 12 12 12 12 13 13 13 14 14 14 15
6 6 5 4 4 3 3 3 3 3 3 3 3 4 4 5 5 4 4 3 3 2 2 2 3 3 3 2 2 1 1 1 1 1 0 0 1 1 1 0 1 1 1 1 1 2 2 2 3 3 3 3 3 3 4 4 5 6 6 7 7 7 8 8 9 9 9 10 10 10 10 11 11 11 11 12 12 12 12 13 13 13 14 14 14 15
6 6 5 4 4 3 3 3 3 3 3 3 3 3 3 4 4 5 5 5 4 3 2 2 2 2 3 2 2 2 1 2 2 2 2 1 1 0 0 0 0 0 0 0 0 1 1 2 2 2 2 2 2 3 4 4 5 5 6 6 7 7 8 8 9 9 9 10 10 10 11 11 11 11 12 12 12 12 13 13 13 13 13 14 14 14
5 5 4 4 4 3 3 3 3 3 3 3 3 3 3 3 3 4 5 5 5 4 4 3 2 2 1 2 2 1 1 1 2 2 2 2 2 2 2 2 2 2 2 2 1 1 1 1 1 1 1 2 2 3 3 4 5 5 6 6 7 7 8 8 8 9 9 10 10 10 11 11 11 12 12 12 12 13 13 13 13 13 13 14 14 14
5 4 4 4 4 4 4 4 4 4 4 4 4 5 4 4 3 3 3 4 4 4 4 3 3 2 1 1 1 0 1 1 1 2 2 2 2 2 2 2 2 2 2 2 2 2 1 0 0 0 1 1 2 3 3 4 5 5 6 6 6 7 7 8 8 9 9 9 10 10 11 11 11 12 12 12 12 13 13 13 13 13 13 14 14 14
5 5 4 5 4 4 4 5 5 5 5 4 4 4 4 4 3 3 2 3 3 3 3 3 3 3 2 1 1 0 1 1 1 1 2 2 2 1 2 2 2 2 2 2 1 1 1 0 0 1 1 2 2 3 3 4 4 5 5 6 6 7 7 8 8 9 9 9 10 10 10 11 11 11 12 12 12 13 13 13 13 13 14 14 14 14
6 6 6 5 5 5 5 5 5 5 5 4 3 3 3 4 4 4 3 4 4 3 3 3 3 3 2 2 1 0 1 1 1 1 2 2 2 1 1 2 2 2 2 1 1 1 1 0 1 1 1 2 2 3 4 5 5 5 6 6 6 7 7 8 8 8 9 9 9 10 10 11 11 11 12 12 12 12 13 13 13 13 14 14 14 14
6 6 6 6 6 5 5 5 5 5 4 4 3 3 4 4 4 4 4 4 4 3 3 3 3 3 3 3 2 1 1 1 1 1 2 2 2 2 1 2 2 2 1 1 1 0 0 0 1 1 1 2 2 4 5 5 5 6 6 6 6 7 7 8 8 8 9 9 9 10 10 10 11 11 11 12 12 12 12 13 13 13 14 14 14 14
5 5 5 6 5 5 5 4 4 4 4 4 4 4 4 4 4 4 4 4 3 3 3 3 3 3 2 3 3 2 1 1 1 1 2 2 2 2 1 2 2 2 1 1 1 0 0 1 1 1 1 2 3 4 5 6 6 6 6 6 6 7 7 8 8 8 8 9 9 10 10 10 11 11 11 12 12 12 12 12 13 13 13 14 14 14
5 5 5 5 5 5 5 4 4 4 4 4 4 4 3 3 3 3 3 3 3 3 3 3 2 2 2 2 3 2 1 1 1 2 2 2 2 2 1 2 2 2 2 1 1 1 1 1 1 1 2 3 4 5 6 6 6 5 5 6 6 7 7 8 8 8 8 9 9 9 10 10 11 11 11 11 12 12 12 12 13 13 13 14 14 14
5 5 5 5 5 5 5 4 4 4 5 5 5 4 4 3 3 3 3 3 3 3 3 3 2 2 1 2 3 3 2 1 2 2 2 2 2 2 2 1 2 2 2 2 1 1 1 1 2 2 3 4 5 6 6 6 6 5 5 5 6 7 7 8 8 8 8 9 9 10 10 10 11 11 11 11 12 12 12 12 13 13 13 14 14 14
5 5 4 5 5 5 5 5 5 5 5 5 5 5 4 4 4 3 3 3 2 2 2 2 2 2 1 2 3 3 2 1 2 2 2 2 2 2 1 1 1 2 2 2 1 1 1 2 2 2 3 4 5 6 6 6 5 5 5 5 6 7 7 8 8 8 8 9 9 10 10 10 11 11 11 11 12 12 12 13 13 13 14 14 14 14
5 5 4 4 5 5 5 5 5 5 6 6 5 5 4 4 4 4 3 3 3 2 2 2 2 2 2 2 3 3 1 1 2 2 1 1 1 2 1 0 1 2 2 2 2 1 2 2 2 2 3 4 5 6 6 6 5 5 5 5 6 7 7 8 8 8 8 9 9 10 10 11 11 11 11 11 12 12 12 13 13 14 14 14 15 15
4 4 4 5 4 4 5 5 6 7 6 6 5 4 4 4 4 4 4 3 3 3 3 2 2 2 2 2 2 2 1 1 2 2 1 1 2 2 2 0 1 2 2 2 2 2 2 2 2 2 3 4 5 6 6 6 5 5 5 5 6 7 8 8 8 8 9 9 10 10 10 11 11 11 11 12 12 12 13 13 13 14 14 15 15 15
4 5 5 5 4 4 5 6 6 6 6 5 5 4 3 3 4 4 4 3 3 3 2 2 3 2 2 2 2 2 1 1 2 2 2 2 1 2 2 0 1 2 2 2 2 2 3 3 3 3 3 4 5 6 6 6 5 5 5 6 7 8 8 8 8 9 9 9 10 10 11 11 11 11 11 12 12 12 13 13 14 14 15 15 16 16
5 5 5 5 4 5 5 6 6 6 5 4 3 3 3 3 3 3 3 3 3 3 3 3 3 2 2 2 2 2 1 1 1 2 2 2 1 1 2 0 1 2 2 2 2 3 3 3 3 2 2 4 5 6 6 6 5 5 5 6 7 8 9 9 9 9 9 9 10 10 11 11 11 11 11 12 12 12 13 13 14 14 15 16 16 16
5 5 5 5 5 6 6 6 6 6 5 4 4 4 4 4 4 4 3 3 3 3 3 3 3 3 3 3 3 2 2 1 1 2 2 1 1 0 1 0 1 2 2 2 3 3 3 3 3 2 2 3 4 5 6 6 5 5 6 7 8 9 9 9 9 9 9 10 10 11 11 11 11 11 11 12 12 13 13 14 14 15 16 16 16 16
7 7 7 8 9 9 10 9 9 8 7 6 5 5 5 5 5 4 3 3 3 3 3 3 3 3 3 2 2 2 3 2 1 2 2 1 1 1 1 0 1 2 3 3 3 3 3 3 3 2 2 3 4 5 5 5 5 6 7 8 9 10 10 9 9 9 10 10 10 11 11 11 11 11 11 12 12 13 13 14 15 15 16 16 16 15
12 13 13 13 12 12 12 11 11 10 10 8 7 6 6 5 5 4 4 3 3 3 3 3 3 3 3 2 2 2 3 2 2 1 1 1 1 1 1 0 1 2 3 3 3 3 3 3 3 2 2 2 3 4 4 5 5 6 8 9 10 10 10 10 9 10 10 10 11 11 11 11 11 11 11 12 12 13 13 14 15 15 15 15 14 12
14 14 14 13 13 12 12 11 11 11 10 10 9 8 6 5 4 4 4 4 3 3 3 3 3 3 2 2 2 2 2 2 2 1 1 1 1 1 0 0 1 2 2 3 2 3 3 3 2 2 1 1 2 3 3 4 6 7 8 9 10 10 9 9 9 10 10 11 11 11 11 11 11 11 11 12 12 13 13 14 14 14 14 12 9 8
13 13 12 12 11 11 11 10 10 11 11 11 10 8 6 4 3 3 4 4 3 3 3 2 2 2 2 2 2 2 2 2 2 2 2 2 1 1 0 0 1 1 2 2 2 2 2 2 2 1 1 2 2 2 3 4 5 7 8 8 9 9 8 9 9 10 10 11 11 11 11 11 11 11 11 12 12 12 13 14 13 12 10 9 8 7
10 10 9 9 8 8 8 8 8 10 11 11 10 8 5 3 2 2 3 3 3 3 3 2 2 2 2 2 2 2 2 2 3 3 2 2 1 1 0 0 0 1 1 2 2 1 1 2 2 1 1 2 2 2 3 4 4 5 6 6 7 7 7 8 9 10 10 11 11 11 11 11 11 11 11 12 12 12 12 13 12 10 7 7 7 7
8 7 6 6 5 5 5 4 5 7 9 10 9 7 4 2 2 2 3 3 2 2 2 2 2 2 2 2 2 2 2 2 3 3 2 2 1 0 0 0 0 0 1 1 2 1 1 1 1 2 2 2 3 3 3 4 4 4 4 4 4 5 6 7 8 9 10 10 10 11 11 11 11 11 11 11 11 12 12 12 11 9 7 7 7 7
6 5 5 4 4 3 3 3 3 4 5 6 5 5 3 2 2 2 2 2 2 2 2 2 2 2 2 2 1 1 1 2 3 3 3 2 1 1 0 1 1 0 0 1 2 2 1 1 0 1 2 2 3 3 4 4 4 4 4 4 4 4 5 6 7 8 8 9 9 10 10 10 11 11 11 11 11 11 11 11 10 9 7 7 7 7
5 4 4 3 3 3 2 2 3 3 3 3 3 3 3 2 2 2 2 2 2 2 2 2 2 2 2 2 1 0 1 2 3 4 3 2 1 1 1 1 1 1 1 1 2 2 2 2 2 2 2 2 3 3 3 3 3 3 3 4 4 4 5 5 6 6 6 7 8 8 9 9 10 10 10 10 10 10 11 11 11 10 8 7 7 8
4 4 4 4 3 3 3 3 3 3 3 3 3 3 2 2 2 2 2 2 1 1 1 2 2 2 2 2 1 1 1 2 4 4 4 2 1 1 1 1 1 2 1 2 2 2 2 2 2 2 2 2 3 3 3 3 3 3 3 3 3 4 4 4 5 5 5 6 6 6 7 7 8 9 9 9 10 10 10 11 12 12 11 9 8 8
4 4 4 4 4 4 3 3 3 3 3 3 3 3 3 2 2 2 2 2 2 1 1 1 1 1 2 2 2 2 2 3 4 4 3 2 1 1 1 2 2 2 2 2 2 2 2 3 3 3 3 3 2 2 2 2 2 2 3 3 3 4 4 4 4 5 5 5 5 5 5 5 6 7 7 8 9 10 11 12 13 13 13 11 10 8
4 4 4 4 4 4 4 4 4 3 3 3 3 3 3 3 2 2 2 2 2 2 1 1 1 1 1 1 1 1 1 2 3 4 3 2 1 1 1 2 2 2 2 2 2 2 2 2 3 3 3 3 3 2 2 2 2 2 3 3 4 4 4 4 4 4 5 5 5 5 5 5 6 6 7 9 10 11 12 13 13 13 12 12 12 11
4 4 4 4 4 4 4 4 3 3 3 3 3 3 3 3 3 3 2 2 2 2 2 1 1 1 1 1 1 1 0 1 2 3 3 2 2 2 2 2 2 2 2 2 2 2 2 3 3 3 3 3 3 2 1 1 2 2 3 3 4 4 4 4 4 4 4 5 5 5 5 5 6 6 7 9 10 11 12 12 12 11 12 12 12 13
4 4 4 4 3 3 3 3 3 3 3 3 3 3 3 3 3 3 3 3 3 2 2 2 2 2 2 2 2 2 1 1 1 2 3 2 2 2 3 2 3 3 3 3 3 2 3 3 3 3 3 3 3 3 3 2 3 3 3 3 4 4 4 4 4 4 4 5 5 5 6 6 6 6 7 7 7 7 8 8 8 9 10 10 11 13
4 4 4 4 3 3 3 3 3 3 3 3 3 3 3 3 3 3 3 2 2 2 2 2 2 2 2 2 2 3 3 3 3 3 3 3 3 3 3 3 3 3 3 3 3 3 3 3 3 3 3 3 3 3 3 3 3 4 4 4 4 4 4 4 4 4 4 5 5 5 5 5 5 6 6 6 6 6 6 6 7 7 8 8 8 10
4 4 4 4 4 3 3 2 2 2 2 2 3 3 3 3 3 3 3 2 2 2 2 2 2 2 2 2 3 4 4 4 4 4 4 4 4 4 4 4 4 3 3 3 3 3 4 4 4 4 4 4 4 4 3 4 4 4 5 4 3 3 3 3 4 4 4 4 5 5 5 5 5 6 6 6 6 6 6 6 6 6 7 6 7 7
4 4 3 3 3 3 2 2 2 2 2 2 2 3 3 3 3 3 3 3 3 3 2 3 3 3 3 4 4 5 5 5 5 5 4 4 4 5 4 4 4 4 3 3 4 4 4 5 5 5 5 5 5 5 5 5 5 5 6 5 4 4 4 4 5 4 4 4 4 4 5 5 6 6 6 6 6 6 6 7 7 7 7 6 6 6
4 3 3 3 3 3 2 2 2 2 2 2 3 3 4 4 3 3 3 3 3 3 3 3 3 3 3 4 4 5 5 5 5 4 4 4 5 5 5 5 4 4 3 4 4 4 4 5 5 5 5 5 5 5 5 5 5 5 5 5 6 6 5 5 4 3 3 3 4 4 5 6 6 6 6 6 6 6 7 7 8 8 8 7 6 6
3 3 3 3 3 3 3 2 2 2 2 3 3 4 4 4 3 3 3 3 3 3 3 2 2 2 3 3 3 3 4 4 4 5 5 5 5 5 5 5 5 4 4 4 4 4 5 5 5 5 5 5 5 5 6 6 6 6 6 6 5 5 4 3 3 2 3 4 4 5 5 5 5 6 6 6 7 7 7 8 9 9 8 7 7 6
3 3 3 3 3 3 2 2 2 3 3 3 3 3 3 3 3 3 3 3 3 3 2 2 2 2 3 3 3 3 3 4 4 5 5 6 6 5 5 5 5 5 5 4 4 4 4 5 5 5 5 5 5 6 6 6 6 6 5 6 5 5 5 4 4 4 4 4 5 5 5 5 5 6 6 6 7 7 7 7 7 7 7 7 7 7
3 3 3 3 3 2 3 3 3 3 3 3 4 3 3 3 3 3 3 3 3 3 2 2 2 2 3 3 3 3 2 3 4 4 4 6 6 6 6 5 5 5 5 5 4 4 4 4 4 4 4 4 5 6 6 6 6 6 6 6 6 6 6 5 5 5 5 5 5 5 5 5 6 6 6 7 7 7 7 7 7 7 7 7 7 7
3 3 3 3 3 3 3 3 3 3 3 3 3 3 3 3 3 3 3 3 3 3 3 3 2 3 3 3 2 2 2 2 3 3 3 4 5 5 5 5 5 5 4 5 5 5 5 4 4 4 4 5 5 6 7 7 7 6 6 6 5 5 5 5 5 5 5 5 5 5 6 6 6 6 6 7 7 7 7 7 7 7 7 7 7 7
4 4 4 3 3 3 4 4 3 3 3 4 4 3 3 3 3 3 3 3 3 3 3 3 3 4 4 3 2 2 2 2 2 2 3 3 3 4 4 4 4 5 4 5 5 5 6 5 5 5 4 5 6 6 6 6 6 6 6 5 5 5 5 5 5 5 5 5 5 6 6 6 6 7 7 7 7 7 7 7 7 7 7 7 7 7
5 5 4 4 4 4 4 4 4 4 4 4 4 4 4 4 4 4 4 4 4 3 3 3 3 4 4 3 3 2 2 2 2 2 2 2 2 3 3 3 4 4 5 5 6 6 6 7 7 7 6 6 6 6 6 6 6 5 5 5 5 5 5 5 5 5 5 5 5 6 6 6 6 7 7 7 7 7 7 7 7 7 7 7 7 7
5 5 5 4 4 4 4 4 4 4 5 5 4 4 4 5 5 5 4 4 4 3 3 3 3 3 3 3 3 2 2 2 2 2 2 2 2 2 2 2 3 3 3 4 5 5 6 7 8 9 8 8 7 7 6 6 5 5 5 5 5 5 5 5 5 5 5 5 6 6 6 6 6 6 7 8 8 8 8 7 7 7 6 7 7 7
5 5 5 5 5 5 5 5 5 5 5 5 5 5 5 5 5 5 5 4 4 4 3 4 3 3 3 3 2 2 2 2 2 2 2 2 2 2 2 2 2 2 2 3 3 4 4 5 7 9 11 11 10 8 6 6 5 5 5 5 4 4 5 5 5 5 5 5 6 6 6 6 6 6 6 7 8 9 8 8 7 7 6 6 6 7
5 5 5 5 5 5 5 5 5 5 5 5 5 5 5 5 5 5 5 4 4 4 4 3 3 3 3 3 3 3 3 3 3 3 2 2 2 2 2 2 2 2 2 2 2 3 3 3 4 6 9 12 13 11 7 5 5 4 4 4 4 4 4 4 5 5 5 6 6 6 6 7 6 6 6 7 8 8 8 8 7 7 6 6 7 7
Wind_Direction
129 136 144 152 150 145 144 147 144 139 137 139 138 134 128 121 115 110 108 108 110 110 111 112 113 113 110 103 98 97 96 95 93 92 89 87 84 81 77 73 69 65 60 56 52 48 44 40 36 32 29 26 23 21 19 18 17 17 15 13 12 10 8 7 5 5 4 5 4 3 1 359 357 356 354 354 353 353 353 352 351 349 347 345 343 343
132 136 147 157 154 147 142 151 150 146 142 142 142 142 143 139 133 124 113 101 97 100 106 111 114 114 111 105 99 95 94 94 92 90 88 86 82 79 75 71 67 62 58 53 49 46 42 38 35 31 28 25 22 20 18 16 15 14 13 11 9 7 5 4 3 2 2 2 1 360 358 356 355 354 353 353 353 352 352 351 350 349 347 345 343 343
143 145 153 160 159 153 144 153 151 144 139 140 143 145 145 142 138 133 126 113 100 93 96 103 109 111 109 105 98 93 92 92 91 90 88 85 82 78 73 69 65 60 55 51 47 43 39 36 32 29 25 23 21 19 16 14 12 11 10 8 6 4 2 0 359 359 359 359 358 357 355 354 353 353 353 352 352 351 350 350 349 348 346 344 343 342
148 150 154 157 157 153 145 147 143 137 131 136 141 143 142 138 135 133 131 126 120 112 103 101 105 109 108 104 98 91 88 88 88 86 85 83 81 77 72 67 62 57 53 48 44 40 36 33 30 26 23 20 18 16 13 10 9 7 6 4 2 360 358 357 356 356 356 356 355 354 353 352 352 352 352 351 350 350 349 348 348 347 346 344 343 342
152 151 150 151 149 145 141 140 137 134 132 135 138 138 136 131 130 131 132 132 130 125 117 107 102 102 103 102 95 89 84 83 83 82 80 80 78 74 70 64 59 54 49 44 39 36 33 31 27 24 20 17 14 12 9 6 5 3 1 360 358 356 354 353 353 352 352 353 352 351 351 350 351 351 351 350 349 348 348 347 347 346 345 344 342 341
149 146 145 147 144 139 138 141 141 141 140 139 136 132 126 124 127 132 137 137 135 130 124 116 105 97 92 92 91 89 87 87 84 82 79 77 74 70 65 60 54 48 43 38 33 31 30 28 25 21 17 13 10 7 5 2 360 358 357 355 354 353 351 350 349 349 350 350 350 349 348 348 349 349 349 349 348 347 347 346 346 345 344 343 342 340
140 139 140 140 137 135 138 147 151 153 152 145 139 134 127 125 127 129 132 134 134 132 129 123 114 103 95 97 103 108 112 109 106 101 94 85 79 74 67 57 49 43 36 29 26 25 25 25 23 19 13 8 5 2 0 357 355 353 351 351 350 349 348 348 347 347 347 347 347 346 346 346 347 347 347 347 347 346 345 345 344 344 343 342 340 339
138 139 143 141 139 138 140 148 155 159 158 151 146 143 140 137 132 128 126 128 132 137 138 134 127 119 111 115 128 144 152 150 151 149 138 133 122 106 86 66 50 39 30 23 18 18 20 21 19 15 10 4 359 357 355 352 349 347 347 347 346 347 346 345 345 345 345 345 344 344 344 344 345 346 346 346 345 345 344 343 343 342 341 340 339 338
140 144 148 147 148 147 146 149 155 162 166 158 153 150 148 146 143 140 139 140 144 150 153 146 140 134 127 128 138 154 161 169 170 167 166 165 150 131 108 94 64 40 27 19 14 14 16 18 16 12 5 358 354 351 348 345 343 341 341 342 343 344 344 344 344 343 343 342 342 342 342 343 344 345 345 345 344 343 343 342 341 340 339 338 337 336
139 143 146 149 152 153 149 147 150 159 175 165 157 153 152 152 152 152 153 155 158 162 165 158 151 144 139 136 137 142 149 142 122 87 58 86 62 53 70 69 44 32 20 16 14 15 15 15 13 8 360 353 347 343 339 336 335 335 337 339 341 342 343 342 342 342 341 340 340 340 341 342 343 344 344 343 342 342 341 340 339 338 337 336 335 334
140 142 143 147 150 149 141 136 139 149 167 163 158 157 163 162 161 161 161 161 162 165 168 163 154 148 143 139 140 148 165 159 153 146 135 128 104 70 140 227 249 299 283 102 40 30 23 17 11 4 352 344 337 332 327 326 327 330 333 336 339 340 341 341 341 340 339 339 338 339 340 341 342 343 342 341 340 340 339 338 337 335 334 333 332 332
144 146 147 148 148 144 134 129 132 144 164 165 165 166 174 177 178 176 169 163 162 163 163 158 149 136 127 127 135 151 180 176 170 165 165 167 173 184 198 203 202 200 204 188 173 146 74 33 15 359 337 327 321 317 314 317 320 326 330 334 337 339 339 339 339 338 337 337 337 338 339 340 341 341 341 340 339 338 337 336 334 333 332 331 330 330
144 147 148 150 150 147 142 141 145 156 173 179 179 177 173 173 181 188 176 161 157 158 158 155 148 137 119 108 108 156 210 192 182 178 180 178 183 194 212 214 212 210 212 202 185 167 132 95 33 327 298 292 291 296 299 307 315 323 328 333 336 337 338 337 337 336 335 336 336 337 338 339 339 339 339 338 337 336 334 333 332 330 329 329 328 328
147 149 151 154 155 155 153 155 159 167 177 184 182 173 157 156 165 176 172 152 146 147 154 156 153 148 142 142 141 300 290 247 211 194 189 178 178 194 233 237 233 229 235 228 201 154 118 182 219 218 234 247 263 281 293 303 313 321 327 331 334 336 336 335 335 334 334 334 335 336 337 337 337 337 336 335 334 333 332 330 329 328 327 327 326 326
153 155 158 160 161 161 161 164 167 170 173 172 160 140 130 144 160 172 173 155 145 145 158 163 162 160 158 153 153 200 282 268 243 216 199 174 163 176 241 248 241 233 234 239 222 151 129 224 247 234 220 239 268 295 304 309 316 322 325 329 332 334 335 334 333 333 333 333 334 335 335 335 335 334 333 332 331 330 329 327 326 325 325 325 324 324
158 160 162 162 161 161 163 167 168 167 161 153 146 143 146 156 167 175 175 158 151 154 167 173 174 172 166 153 151 169 260 266 258 242 225 178 154 152 240 256 250 238 231 242 245 224 158 244 264 261 249 268 291 300 302 304 309 315 320 326 331 333 334 333 332 332 332 333 333 333 334 333 333 332 331 329 328 327 325 324 324 323 323 323 323 323
161 164 164 160 159 158 160 164 162 157 148 147 152 158 161 163 167 170 168 156 155 162 177 181 182 179 167 154 152 160 214 255 259 251 240 192 152 139 223 265 266 263 256 261 276 299 306 291 277 269 267 282 290 293 293 296 300 307 315 323 329 332 333 332 332 332 332 332 332 332 332 332 330 329 328 326 325 324 322 322 321 321 321 321 321 321
163 166 163 159 156 154 154 158 155 149 145 151 156 159 159 156 158 161 161 160 164 172 181 188 192 188 170 152 142 142 167 236 257 253 240 203 157 138 175 255 272 279 280 278 284 301 308 299 294 292 292 290 288 286 284 286 291 299 311 321 328 331 332 331 331 332 332 332 332 331 331 330 328 327 325 323 322 321 320 319 319 319 319 319 319 319
163 165 163 158 152 149 151 157 157 155 155 157 157 154 151 150 152 157 162 168 174 178 181 187 190 187 160 127 119 121 140 219 255 255 245 211 164 145 168 233 264 276 282 284 292 304 308 296 288 284 283 281 277 275 274 277 282 293 308 319 326 329 331 331 331 332 332 332 331 331 330 328 326 325 323 321 320 319 318 318 318 317 317 317 317 318
159 161 161 151 146 146 152 159 162 161 159 156 153 151 150 151 154 159 163 169 173 177 178 180 174 159 126 110 109 113 126 214 247 250 247 220 173 150 158 240 279 288 290 289 296 308 306 299 287 274 265 263 262 262 263 268 275 288 304 317 324 328 329 330 331 331 332 332 331 330 329 327 326 324 322 320 319 318 317 317 317 316 316 316 316 316
152 154 153 144 143 147 154 158 159 157 154 150 148 148 150 152 156 160 161 162 162 164 167 164 151 135 120 115 110 106 103 240 252 251 245 222 184 158 145 234 294 297 293 292 295 302 301 294 288 275 258 254 254 255 256 261 270 283 301 314 322 326 328 328 329 330 331 331 330 330 329 327 325 323 321 320 318 318 317 317 317 317 316 316 316 315
146 144 140 139 141 144 145 146 148 148 147 147 148 151 153 155 157 158 156 156 158 160 160 148 124 105 97 98 96 93 80 280 275 271 262 231 188 156 135 160 293 295 291 292 297 301 299 292 285 272 258 251 250 251 253 257 264 278 297 312 320 324 325 326 327 328 329 329 329 328 327 326 324 322 321 319 319 318 318 318 317 317 317 316 316 315
131 131 133 135 134 132 131 134 138 142 146 150 151 151 147 151 150 149 149 151 150 144 131 110 96 89 87 94 99 101 100 287 283 279 267 247 193 142 124 139 286 288 287 293 301 304 300 291 281 268 253 244 243 246 247 250 258 272 292 308 317 321 323 324 324 325 326 327 327 327 326 325 323 322 320 319 319 318 318 318 318 317 317 316 315 314
116 122 127 127 124 123 126 132 137 142 147 145 137 125 115 116 117 119 122 123 119 114 111 111 118 128 138 145 142 137 134 219 266 269 263 256 218 125 111 96 296 290 287 294 300 300 296 285 276 262 242 231 232 236 240 245 252 267 289 305 313 318 320 320 321 321 323 324 324 324 324 323 322 321 320 319 319 319 319 318 318 317 317 316 314 312
116 122 125 123 122 124 128 132 137 140 142 136 126 116 110 104 99 96 94 96 103 116 136 152 159 160 156 161 157 149 139 177 241 261 264 264 255 145 106 55 304 295 292 296 297 295 289 281 270 253 231 217 219 225 232 240 252 268 288 302 310 314 315 316 316 317 318 320 321 322 322 322 321 320 319 319 319 319 319 319 318 318 317 315 313 310
114 117 118 119 120 123 125 129 133 137 138 136 133 130 126 119 114 112 115 121 136 152 166 171 170 162 153 162 160 151 141 165 213 253 271 273 261 231 150 147 296 293 294 294 292 288 284 280 268 249 228 208 206 213 225 238 254 272 289 299 305 309 311 311 312 313 314 316 318 319 320 320 320 319 319 319 319 319 319 319 319 318 317 315 312 308
108 111 113 116 119 122 126 130 134 138 140 140 140 140 138 137 136 139 145 154 164 173 179 177 168 158 155 165 160 148 142 157 181 222 267 273 262 239 173 188 299 295 293 291 286 281 276 275 269 257 239 212 199 205 223 242 260 276 288 296 300 303 305 306 307 308 310 312 314 316 317 317 318 318 318 319 319 319 319 319 319 318 317 315 311 306
109 112 116 120 124 128 133 138 143 147 149 149 149 150 152 152 153 154 156 160 168 178 185 177 166 157 157 158 149 140 145 157 163 173 225 254 256 246 151 343 306 299 297 291 281 269 259 259 261 262 256 238 220 219 228 247 265 277 286 292 296 298 300 301 302 304 306 309 311 312 313 314 315 316 317 317 318 318 319 319 319 318 316 313 309 304
113 117 121 125 130 136 143 149 154 158 160 159 160 163 170 171 167 158 149 153 163 174 177 170 162 154 146 139 136 141 161 161 156 160 199 235 244 239 143 283 300 306 309 298 280 255 227 225 230 241 250 250 245 241 241 254 267 277 283 288 291 293 294 295 298 300 303 305 307 309 310 311 312 313 314 315 316 317 318 319 319 318 316 312 308 306
117 119 118 120 127 136 146 154 160 164 165 164 164 168 180 187 173 145 133 148 163 173 168 160 156 151 145 147 154 164 171 156 151 158 196 229 238 231 192 260 309 333 331 309 291 262 210 186 185 204 232 247 254 259 262 266 273 279 283 286 287 287 289 292 295 298 301 303 305 306 307 308 309 310 311 312 313 314 316 318 318 318 314 311 308 306
127 125 121 120 123 127 133 139 149 155 158 158 160 165 176 178 158 137 135 155 170 177 166 158 154 155 162 172 179 174 156 142 145 158 196 227 243 250 279 277 297 339 348 314 301 291 267 175 166 180 210 235 248 256 262 269 273 278 281 284 284 283 286 291 294 297 299 301 303 304 305 306 307 307 308 309 310 311 313 315 317 317 314 311 308 306
130 128 126 126 125 123 122 122 126 133 139 145 151 156 160 158 150 145 150 164 175 178 168 159 156 161 175 197 206 175 120 126 142 160 193 220 240 245 251 263 259 250 218 268 282 290 294 285 216 202 222 245 255 259 260 262 265 270 276 279 281 284 289 293 295 297 299 301 302 303 304 305 305 305 306 306 307 307 309 311 313 314 312 310 307 305
126 125 127 129 131 132 133 135 135 134 133 138 143 146 148 150 150 152 156 164 172 176 171 163 161 164 175 197 212 167 102 121 143 163 188 210 229 235 229 243 246 242 224 232 246 259 272 280 285 283 274 268 265 262 259 256 257 260 268 275 280 286 294 296 297 298 300 301 302 303 304 304 304 304 304 304 304 304 305 307 308 308 308 306 305 304
129 132 136 140 143 146 151 156 157 155 151 151 149 147 147 149 151 152 153 157 164 170 173 169 165 165 172 180 185 173 139 132 146 161 186 205 225 237 239 241 244 245 241 238 238 242 251 260 269 277 280 274 267 260 255 250 249 253 262 271 279 285 291 295 297 298 299 301 301 302 304 305 305 304 303 303 303 303 303 303 303 302 299 298 298 299
140 144 148 151 154 157 161 166 168 170 168 165 160 155 153 153 153 151 152 153 155 160 166 174 174 175 177 180 180 173 160 140 147 160 183 200 218 238 245 241 240 242 247 251 250 252 256 261 269 277 285 284 277 264 249 239 239 246 257 263 269 274 280 286 290 293 296 296 297 300 303 304 305 304 303 303 302 302 301 300 298 296 293 291 290 290
153 155 157 160 162 163 165 168 171 173 175 171 165 161 160 160 158 156 154 154 153 155 160 171 186 204 211 207 197 178 149 134 143 158 180 197 216 235 247 242 239 240 247 254 258 264 272 275 278 279 280 279 276 268 247 234 238 249 258 261 264 269 274 279 283 286 289 292 294 297 300 302 303 303 302 302 301 300 298 296 294 292 290 288 285 284
163 164 165 168 169 168 167 168 171 175 177 172 167 165 166 165 164 159 154 155 158 162 166 173 187 206 217 235 243 237 168 133 148 164 185 203 221 236 247 251 248 246 247 255 263 271 279 282 281 278 271 269 271 276 282 282 277 275 274 274 276 278 278 276 275 276 281 284 288 292 296 299 301 301 300 300 299 297 295 293 292 290 289 287 285 283
172 172 172 172 173 174 173 172 174 177 178 173 169 166 167 166 163 159 154 159 167 174 179 184 190 197 205 224 242 254 263 243 215 206 209 217 227 237 246 252 252 249 248 254 263 271 276 278 280 280 276 275 280 287 296 296 292 287 285 284 283 279 275 271 268 269 273 279 284 288 293 296 298 298 298 298 298 297 295 295 294 293 292 290 286 283
177 176 174 173 175 178 180 179 177 174 173 166 160 156 155 156 155 155 153 159 168 178 184 192 195 194 185 217 237 244 247 244 240 235 229 228 232 238 244 248 250 249 248 252 255 259 263 267 272 277 284 287 290 291 292 291 290 291 294 291 284 274 267 268 271 275 278 282 286 288 290 292 294 294 295 296 296 297 297 298 298 297 296 294 290 286
178 177 173 172 173 175 179 173 157 142 141 139 137 140 146 153 158 160 159 162 167 171 172 185 202 211 203 216 227 233 233 232 231 229 225 220 223 231 240 244 248 250 249 247 248 249 251 258 265 271 278 283 288 292 293 289 290 292 298 294 288 280 278 283 285 284 281 280 282 284 287 290 291 292 292 292 293 294 295 296 296 296 296 294 293 291
177 175 172 169 165 160 150 124 103 99 115 134 146 154 163 169 172 172 171 173 177 180 182 193 207 218 217 219 223 226 225 222 223 224 218 208 213 223 235 240 245 249 250 248 246 246 247 253 261 266 270 276 280 283 282 282 284 288 290 288 287 289 294 289 283 277 272 273 276 280 286 290 291 290 289 289 289 289 290 291 291 291 290 287 286 287
178 177 174 162 147 131 114 106 108 119 140 160 171 176 179 181 182 182 180 183 185 186 188 199 212 223 229 225 221 217 213 209 208 207 202 198 204 215 227 233 238 242 246 247 247 246 245 250 256 263 268 274 278 281 280 281 283 284 283 283 287 291 291 282 274 269 273 280 285 288 290 290 290 289 289 290 290 289 288 286 285 284 283 280 279 278
181 179 168 142 123 114 116 128 140 153 168 181 187 188 185 186 188 190 191 193 191 187 185 197 215 235 249 248 236 217 196 188 190 192 189 188 196 208 222 228 232 236 238 243 247 247 245 247 250 256 262 268 272 276 279 282 283 282 279 282 288 293 292 285 287 292 295 294 293 291 290 289 289 289 291 291 290 288 285 281 279 277 276 276 276 276
172 161 133 117 112 116 136 156 167 175 182 189 192 190 182 186 191 197 201 203 200 193 185 193 214 236 247 246 240 225 192 177 179 186 190 186 190 200 218 226 230 233 234 239 245 251 252 250 250 252 255 261 266 270 274 278 281 282 280 281 281 281 280 290 299 303 298 293 289 286 286 289 291 292 291 289 287 284 282 280 279 278 276 277 277 276
158 144 125 124 132 150 173 178 179 181 187 194 194 187 173 179 188 197 204 207 204 200 193 197 215 233 238 233 226 213 196 183 182 185 192 191 194 200 211 221 228 231 232 236 241 248 255 257 258 259 260 261 263 266 270 275 278 279 279 278 277 277 276 284 291 294 292 290 289 288 290 294 295 294 291 289 286 285 283 283 283 283 281 279 276 275
162 158 152 154 165 179 188 182 178 179 187 197 196 186 168 171 182 195 205 208 207 203 197 206 221 235 242 236 224 209 199 195 190 188 188 190 195 200 207 215 222 227 230 235 240 245 250 256 263 269 273 269 265 263 262 268 272 276 278 279 279 280 281 282 284 285 287 289 291 294 298 301 299 295 291 290 289 288 286 285 284 283 283 281 278 276
182 181 176 176 183 190 192 181 176 178 188 196 194 184 167 169 179 192 202 207 210 210 206 213 223 233 240 239 233 223 216 210 201 192 186 187 191 196 201 208 216 223 228 233 238 242 245 250 254 259 264 266 265 263 261 262 266 271 276 281 283 284 283 283 284 286 288 289 292 298 305 305 300 295 292 293 292 291 288 286 284 283 284 283 281 279
190 188 184 184 187 192 190 182 179 183 192 195 192 182 168 173 181 190 198 204 209 214 216 218 223 229 234 233 230 227 227 226 219 207 197 192 191 195 200 205 211 218 225 231 237 241 243 243 242 242 244 249 256 262 265 265 266 269 275 281 284 284 283 284 285 287 287 289 294 300 305 303 300 298 299 297 295 291 289 289 288 287 286 283 282 280
192 190 187 185 188 191 191 184 184 188 195 196 191 182 172 179 187 195 201 202 206 211 217 221 224 228 231 228 223 218 219 226 228 224 215 205 199 199 202 208 216 223 229 234 238 241 243 242 238 235 233 236 244 254 263 266 267 270 274 276 277 279 280 283 286 289 292 295 298 301 302 298 297 298 299 297 294 292 292 292 291 289 286 284 282 282
195 194 190 188 190 193 192 187 187 191 196 196 192 184 177 181 190 199 205 204 205 208 214 218 223 227 230 226 220 212 211 217 220 220 214 205 201 201 204 210 222 232 242 242 242 242 242 241 235 230 226 226 230 239 253 261 266 269 270 269 271 275 279 285 291 297 302 302 303 303 301 298 295 294 293 292 292 292 293 293 292 290 289 288 288 287
195 195 194 194 195 196 194 190 189 192 196 196 193 189 183 183 189 197 204 205 206 208 212 215 219 224 228 226 221 215 213 216 219 219 212 201 199 203 209 214 224 235 245 249 248 246 245 246 239 228 218 213 216 222 237 250 262 269 270 271 275 282 288 293 298 302 305 304 304 303 301 298 295 292 291 291 292 293 293 292 291 291 293 295 295 294